SL-16 DEB, 44574

Orbit data source: Space-Track

SL-16 DEB, 44574 is space debris in LEO originally from a launch on Fri, 25 Dec 1992 UTC launched from the Tyuratam Missile And Space Complex (TTMTR). Debris objects in space refer to the collection of defunct objects orbiting the Earth. Examples of debris include non-operational satellites, rocket bodies, and fragments generated from explosions, collisions, or faulty payload assembly.

Loading next visibility...
SL-16 DEB details
Identifier
44574, 1992-093LW
Orbit
LEO
Last TLE update21 hours ago
Origin
Flag of CISRVSN RF (CIS)
ManufacturerUnknown
MissionSpacecraft
Bus & MotorUnknown
MassUnknown
Launch date (UTC)
1992-12-25 (32 years ago)
Launch vehicleUnknown
Launch site
Tyuratam Missile And Space Complex (TTMTR)
Object type
Payload
Rocket body
Debris
Shape & HBRUnknown
Radar Cross SectionSmall (<0.1 m²)

Expand to show TLE details & history

TLE from 21 hours ago
0 SL-16 DEB
1 44574U 92093LW  24346.11241500  .00009108  00000-0  26609-2 0  9993
2 44574  71.1226 226.6764 0098798 181.0940 329.3294 14.41413570574695
Epoch: 2024-12-11T02:41Z
Definitive object data (Epoch: 2024-12-11T02:41:52.655Z)
Latitude28.4409°
Longitude-84.71935°
Altitude696.422 km
Speed7.542 km/s
True Right ascension02h 24m 14s
True Declination28° 17' 45"
Sunlit
Object was in full shadow at TLE epoch
Visualization TLE readout
Latitude-59.98524°
Longitude67.95203°
Altitude804.806 km
Speed7.435 km/s
Apparent Right ascension10h 56m 16s
Apparent Declination-52° 18' 07"
Sunlit
Object is in daylight
Visualization observer readout
Local Sidereal Time21:44:48
Azimuth218.79° SW
Elevation-72.575°
Doppler factor1
Orbital elements
Apogee altitude822.16 km
Perigee altitude681.277 km
Semi-major axis7,129.855 km
Eccentricity0.0098798
Inclination71.1226°
RAAN226.6764°
Arg. of periapsis181.094°
True anomaly328.74571°
Mean anomaly329.3294°
Eccentric anomaly329.03818°
Mean motion3.60514 °/min
BSTAR0.0026609
Orbital period99.86 mins
Loading maneuver chart data...
Loading historical data...
Loading historical data...
Loading historical data...
Loading historical data...
Loading historical data...
Loading historical data...
Loading historical data...

SL-16 DEB Visibility forecast

Observer location: undefined°, undefined

Span
Click to sort rows by Start time (UTC) header in descending order
Start Az.
Max El. time (UTC)
Max El. Az.
Max El.
End time (UTC)
End Az.
4 mins2024-12-12 01:52:38.282Z20.964° NNE2024-12-12 01:54:38.282Z45.978° ENE14.073°2024-12-12 01:56:38.282Z72.88° E
7 mins2024-12-12 03:34:38.282Z328.973° NNW2024-12-12 03:37:38.282Z250.367° W43.365°2024-12-12 03:41:38.282Z167.889° S
7 mins2024-12-12 16:26:38.282Z145.045° SSE2024-12-12 16:29:38.282Z102.028° ESE23.202°2024-12-12 16:33:38.282Z50.836° ENE
8 mins2024-12-12 18:07:38.282Z234.712° WSW2024-12-12 18:11:38.282Z303.208° NW33.516°2024-12-12 18:15:38.282Z4.891° NNE
|